Year,Month,Day,Hour,Minute,Value (Times are PST for temperature in C)
2018,11,11,00,00,6.10
2018,11,11,00,01,6.10
2018,11,11,00,02,6.10
2018,11,11,00,03,6.10
2018,11,11,00,04,6.10
2018,11,11,00,05,6.10
2018,11,11,00,06,6.10
2018,11,11,00,07,6.10
2018,11,11,00,08,6.10
2018,11,11,00,09,6.10
2018,11,11,00,10,6.10
2018,11,11,00,11,6.10
2018,11,11,00,12,6.10
2018,11,11,00,13,6.10
2018,11,11,00,14,6.00
2018,11,11,00,15,6.00
2018,11,11,00,16,6.00
2018,11,11,00,17,6.00
2018,11,11,00,18,6.00
2018,11,11,00,19,6.00
2018,11,11,00,20,6.00
2018,11,11,00,21,6.00
2018,11,11,00,22,6.00
2018,11,11,00,23,6.00
2018,11,11,00,24,6.00
2018,11,11,00,25,6.00
2018,11,11,00,26,6.00
2018,11,11,00,27,6.00
2018,11,11,00,28,6.00
2018,11,11,00,29,6.00
2018,11,11,00,30,6.00
2018,11,11,00,31,5.90
2018,11,11,00,32,5.90
2018,11,11,00,33,5.90
2018,11,11,00,34,5.90
2018,11,11,00,35,5.90
2018,11,11,00,36,5.90
2018,11,11,00,37,5.90
2018,11,11,00,38,5.90
2018,11,11,00,39,5.90
2018,11,11,00,40,5.90
2018,11,11,00,41,5.90
2018,11,11,00,42,5.90
2018,11,11,00,43,5.90
2018,11,11,00,44,5.90
2018,11,11,00,45,5.90
2018,11,11,00,46,5.90
2018,11,11,00,47,5.90
2018,11,11,00,48,5.90
2018,11,11,00,49,5.90
2018,11,11,00,50,5.90
2018,11,11,00,51,5.90
2018,11,11,00,52,5.80
2018,11,11,00,53,5.80
2018,11,11,00,54,5.80
2018,11,11,00,55,5.80
2018,11,11,00,56,5.80
2018,11,11,00,57,5.80
2018,11,11,00,58,5.80
2018,11,11,00,59,5.90
2018,11,11,01,00,5.90
2018,11,11,01,01,5.90
2018,11,11,01,02,5.90
2018,11,11,01,03,5.90
2018,11,11,01,04,5.90
2018,11,11,01,05,5.90
2018,11,11,01,06,5.90
2018,11,11,01,07,5.80
2018,11,11,01,08,5.80
2018,11,11,01,09,5.80
2018,11,11,01,10,5.80
2018,11,11,01,11,5.80
2018,11,11,01,12,5.80
2018,11,11,01,13,5.80
2018,11,11,01,14,5.80
2018,11,11,01,15,5.80
2018,11,11,01,16,5.80
2018,11,11,01,17,5.80
2018,11,11,01,18,5.80
2018,11,11,01,19,5.80
2018,11,11,01,20,5.80
2018,11,11,01,21,5.80
2018,11,11,01,22,5.80
2018,11,11,01,23,5.80
2018,11,11,01,24,5.70
2018,11,11,01,25,5.70
2018,11,11,01,26,5.70
2018,11,11,01,27,5.70
2018,11,11,01,28,5.70
2018,11,11,01,29,5.70
2018,11,11,01,30,5.70
2018,11,11,01,31,5.70
2018,11,11,01,32,5.70
2018,11,11,01,33,5.70
2018,11,11,01,34,5.70
2018,11,11,01,35,5.70
2018,11,11,01,36,5.60
2018,11,11,01,37,5.60
2018,11,11,01,38,5.60
2018,11,11,01,39,5.60
2018,11,11,01,40,5.60
2018,11,11,01,41,5.60
2018,11,11,01,42,5.60
2018,11,11,01,43,5.60
2018,11,11,01,44,5.60
2018,11,11,01,45,5.60
2018,11,11,01,46,5.60
2018,11,11,01,47,5.50
2018,11,11,01,48,5.50
2018,11,11,01,49,5.50
2018,11,11,01,50,5.50
2018,11,11,01,51,5.40
2018,11,11,01,52,5.40
2018,11,11,01,53,5.40
2018,11,11,01,54,5.40
2018,11,11,01,55,5.40
2018,11,11,01,56,5.40
2018,11,11,01,57,5.30
2018,11,11,01,58,5.30
2018,11,11,01,59,5.30
2018,11,11,02,00,5.30
2018,11,11,02,01,5.30
2018,11,11,02,02,5.30
2018,11,11,02,03,5.20
2018,11,11,02,04,5.20
2018,11,11,02,05,5.20
2018,11,11,02,06,5.20
2018,11,11,02,07,5.10
2018,11,11,02,08,5.10
2018,11,11,02,09,5.10
2018,11,11,02,10,5.00
2018,11,11,02,11,5.00
2018,11,11,02,12,5.00
2018,11,11,02,13,4.90
2018,11,11,02,14,4.90
2018,11,11,02,15,4.90
2018,11,11,02,16,4.80
2018,11,11,02,17,4.80
2018,11,11,02,18,4.80
2018,11,11,02,19,4.80
2018,11,11,02,20,4.70
2018,11,11,02,21,4.70
2018,11,11,02,22,4.70
2018,11,11,02,23,4.60
2018,11,11,02,24,4.60
2018,11,11,02,25,4.60
2018,11,11,02,26,4.60
2018,11,11,02,27,4.50
2018,11,11,02,28,4.50
2018,11,11,02,29,4.40
2018,11,11,02,30,4.40
2018,11,11,02,31,4.40
2018,11,11,02,32,4.40
2018,11,11,02,33,4.30
2018,11,11,02,34,4.30
2018,11,11,02,35,4.30
2018,11,11,02,36,4.30
2018,11,11,02,37,4.30
2018,11,11,02,38,4.20
2018,11,11,02,39,4.20
2018,11,11,02,40,4.20
2018,11,11,02,41,4.20
2018,11,11,02,42,4.20
2018,11,11,02,43,4.10
2018,11,11,02,44,4.10
2018,11,11,02,45,4.10
2018,11,11,02,46,4.10
2018,11,11,02,47,4.10
2018,11,11,02,48,4.00
2018,11,11,02,49,4.00
2018,11,11,02,50,4.00
2018,11,11,02,51,4.00
2018,11,11,02,52,3.90
2018,11,11,02,53,3.90
2018,11,11,02,54,3.90
2018,11,11,02,55,3.90
2018,11,11,02,56,3.80
2018,11,11,02,57,3.80
2018,11,11,02,58,3.80
2018,11,11,02,59,3.80
2018,11,11,03,00,3.70
2018,11,11,03,01,3.70
2018,11,11,03,02,3.70
2018,11,11,03,03,3.70
2018,11,11,03,04,3.60
2018,11,11,03,05,3.60
2018,11,11,03,06,3.60
2018,11,11,03,07,3.50
2018,11,11,03,08,3.50
2018,11,11,03,09,3.50
2018,11,11,03,10,3.40
2018,11,11,03,11,3.40
2018,11,11,03,12,3.40
2018,11,11,03,13,3.40
2018,11,11,03,14,3.30
2018,11,11,03,15,3.30
2018,11,11,03,16,3.30
2018,11,11,03,17,3.30
2018,11,11,03,18,3.20
2018,11,11,03,19,3.20
2018,11,11,03,20,3.20
2018,11,11,03,21,3.20
2018,11,11,03,22,3.20
2018,11,11,03,23,3.10
2018,11,11,03,24,3.10
2018,11,11,03,25,3.10
2018,11,11,03,26,3.10
2018,11,11,03,27,3.10
2018,11,11,03,28,3.00
2018,11,11,03,29,3.00
2018,11,11,03,30,3.00
2018,11,11,03,31,3.00
2018,11,11,03,32,2.90
2018,11,11,03,33,2.90
2018,11,11,03,34,2.90
2018,11,11,03,35,2.90
2018,11,11,03,36,2.90
2018,11,11,03,37,2.90
2018,11,11,03,38,2.90
2018,11,11,03,39,2.90
2018,11,11,03,40,2.90
2018,11,11,03,41,2.90
2018,11,11,03,42,2.80
2018,11,11,03,43,2.80
2018,11,11,03,44,2.80
2018,11,11,03,45,2.80
2018,11,11,03,46,2.80
2018,11,11,03,47,2.80
2018,11,11,03,48,2.80
2018,11,11,03,49,2.80
2018,11,11,03,50,2.80
2018,11,11,03,51,2.80
2018,11,11,03,52,2.80
2018,11,11,03,53,2.70
2018,11,11,03,54,2.70
2018,11,11,03,55,2.70
2018,11,11,03,56,2.70
2018,11,11,03,57,2.70
2018,11,11,03,58,2.60
2018,11,11,03,59,2.60
2018,11,11,04,00,2.60
2018,11,11,04,01,2.60
2018,11,11,04,02,2.60
2018,11,11,04,03,2.50
2018,11,11,04,04,2.50
2018,11,11,04,05,2.50
2018,11,11,04,06,2.50
2018,11,11,04,07,2.50
2018,11,11,04,08,2.40
2018,11,11,04,09,2.40
2018,11,11,04,10,2.40
2018,11,11,04,11,2.40
2018,11,11,04,12,2.40
2018,11,11,04,13,2.40
2018,11,11,04,14,2.40
2018,11,11,04,15,2.40
2018,11,11,04,16,2.40
2018,11,11,04,17,2.40
2018,11,11,04,18,2.40
2018,11,11,04,19,2.40
2018,11,11,04,20,2.40
2018,11,11,04,21,2.40
2018,11,11,04,22,2.40
2018,11,11,04,23,2.40
2018,11,11,04,24,2.40
2018,11,11,04,25,2.50
2018,11,11,04,26,2.50
2018,11,11,04,27,2.50
2018,11,11,04,28,2.50
2018,11,11,04,29,2.50
2018,11,11,04,30,2.50
2018,11,11,04,31,2.50
2018,11,11,04,32,2.60
2018,11,11,04,33,2.60
2018,11,11,04,34,2.60
2018,11,11,04,35,2.60
2018,11,11,04,36,2.60
2018,11,11,04,37,2.60
2018,11,11,04,38,2.60
2018,11,11,04,39,2.60
2018,11,11,04,40,2.60
2018,11,11,04,41,2.60
2018,11,11,04,42,2.50
2018,11,11,04,43,2.50
2018,11,11,04,44,2.50
2018,11,11,04,45,2.50
2018,11,11,04,46,2.50
2018,11,11,04,47,2.50
2018,11,11,04,48,2.50
2018,11,11,04,49,2.50
2018,11,11,04,50,2.50
2018,11,11,04,51,2.50
2018,11,11,04,52,2.50
2018,11,11,04,53,2.60
2018,11,11,04,54,2.60
2018,11,11,04,55,2.60
2018,11,11,04,56,2.60
2018,11,11,04,57,2.60
2018,11,11,04,58,2.60
2018,11,11,04,59,2.60
2018,11,11,05,00,2.60
2018,11,11,05,01,2.60
2018,11,11,05,02,2.60
2018,11,11,05,03,2.60
2018,11,11,05,04,2.50
2018,11,11,05,05,2.50
2018,11,11,05,06,2.50
2018,11,11,05,07,2.50
2018,11,11,05,08,2.50
2018,11,11,05,09,2.50
2018,11,11,05,10,2.60
2018,11,11,05,11,2.60
2018,11,11,05,12,2.60
2018,11,11,05,13,2.50
2018,11,11,05,14,2.50
2018,11,11,05,15,2.50
2018,11,11,05,16,2.50
2018,11,11,05,17,2.50
2018,11,11,05,18,2.50
2018,11,11,05,19,2.40
2018,11,11,05,20,2.40
2018,11,11,05,21,2.40
2018,11,11,05,22,2.40
2018,11,11,05,23,2.30
2018,11,11,05,24,2.30
2018,11,11,05,25,2.30
2018,11,11,05,26,2.30
2018,11,11,05,27,2.20
2018,11,11,05,28,2.20
2018,11,11,05,29,2.20
2018,11,11,05,30,2.20
2018,11,11,05,31,2.20
2018,11,11,05,32,2.20
2018,11,11,05,33,2.20
2018,11,11,05,34,2.20
2018,11,11,05,35,2.20
2018,11,11,05,36,2.10
2018,11,11,05,37,2.10
2018,11,11,05,38,2.10
2018,11,11,05,39,2.10
2018,11,11,05,40,2.10
2018,11,11,05,41,2.10
2018,11,11,05,42,2.10
2018,11,11,05,43,2.10
2018,11,11,05,44,2.10
2018,11,11,05,45,2.10
2018,11,11,05,46,2.10
2018,11,11,05,47,2.00
2018,11,11,05,48,2.00
2018,11,11,05,49,2.00
2018,11,11,05,50,2.00
2018,11,11,05,51,2.00
2018,11,11,05,52,2.00
2018,11,11,05,53,2.00
2018,11,11,05,54,2.10
2018,11,11,05,55,2.10
2018,11,11,05,56,2.10
2018,11,11,05,57,2.10
2018,11,11,05,58,2.10
2018,11,11,05,59,2.10
2018,11,11,06,00,2.10
2018,11,11,06,01,2.10
2018,11,11,06,02,2.10
2018,11,11,06,03,2.10
2018,11,11,06,04,2.10
2018,11,11,06,05,2.10
2018,11,11,06,06,2.10
2018,11,11,06,07,2.10
2018,11,11,06,08,2.10
2018,11,11,06,09,2.10
2018,11,11,06,10,2.10
2018,11,11,06,11,2.10
2018,11,11,06,12,2.10
2018,11,11,06,13,2.10
2018,11,11,06,14,2.20
2018,11,11,06,15,2.20
2018,11,11,06,16,2.20
2018,11,11,06,17,2.20
2018,11,11,06,18,2.20
2018,11,11,06,19,2.20
2018,11,11,06,20,2.20
2018,11,11,06,21,2.20
2018,11,11,06,22,2.20
2018,11,11,06,23,2.20
2018,11,11,06,24,2.20
2018,11,11,06,25,2.20
2018,11,11,06,26,2.20
2018,11,11,06,27,2.10
2018,11,11,06,28,2.10
2018,11,11,06,29,2.10
2018,11,11,06,30,2.10
2018,11,11,06,31,2.00
2018,11,11,06,32,2.00
2018,11,11,06,33,2.00
2018,11,11,06,34,2.00
2018,11,11,06,35,1.90
2018,11,11,06,36,1.90
2018,11,11,06,37,1.90
2018,11,11,06,38,1.90
2018,11,11,06,39,2.00
2018,11,11,06,40,2.00
2018,11,11,06,41,2.00
2018,11,11,06,42,2.00
2018,11,11,06,43,2.00
2018,11,11,06,44,2.00
2018,11,11,06,45,2.00
2018,11,11,06,46,2.00
2018,11,11,06,47,2.00
2018,11,11,06,48,2.00
2018,11,11,06,49,2.00
2018,11,11,06,50,2.00
2018,11,11,06,51,2.00
2018,11,11,06,52,2.00
2018,11,11,06,53,2.00
2018,11,11,06,54,2.00
2018,11,11,06,55,1.90
2018,11,11,06,56,1.90
2018,11,11,06,57,1.90
2018,11,11,06,58,1.90
2018,11,11,06,59,1.90
2018,11,11,07,00,1.90
2018,11,11,07,01,1.90
2018,11,11,07,02,1.90
2018,11,11,07,03,1.90
2018,11,11,07,04,1.90
2018,11,11,07,05,1.90
2018,11,11,07,06,1.90
2018,11,11,07,07,1.90
2018,11,11,07,08,1.90
2018,11,11,07,09,1.90
2018,11,11,07,10,1.90
2018,11,11,07,11,1.90
2018,11,11,07,12,1.90
2018,11,11,07,13,1.90
2018,11,11,07,14,1.90
2018,11,11,07,15,1.80
2018,11,11,07,16,1.80
2018,11,11,07,17,1.80
2018,11,11,07,18,1.80
2018,11,11,07,19,1.80
2018,11,11,07,20,1.80
2018,11,11,07,21,1.80
2018,11,11,07,22,1.80
2018,11,11,07,23,1.90
2018,11,11,07,24,1.90
2018,11,11,07,25,1.90
2018,11,11,07,26,1.90
2018,11,11,07,27,1.90
2018,11,11,07,28,1.90
2018,11,11,07,29,1.90
2018,11,11,07,30,1.90
2018,11,11,07,31,1.90
2018,11,11,07,32,1.90
2018,11,11,07,33,1.90
2018,11,11,07,34,1.90
2018,11,11,07,35,1.90
2018,11,11,07,36,1.90
2018,11,11,07,37,1.90
2018,11,11,07,38,1.90
2018,11,11,07,39,1.90
2018,11,11,07,40,1.90
2018,11,11,07,41,1.90
2018,11,11,07,42,1.90
2018,11,11,07,43,1.90
2018,11,11,07,44,1.90
2018,11,11,07,45,1.90
2018,11,11,07,46,1.90
2018,11,11,07,47,1.90
2018,11,11,07,48,1.90
2018,11,11,07,49,1.90
2018,11,11,07,50,1.90
2018,11,11,07,51,1.90
2018,11,11,07,52,1.90
2018,11,11,07,53,1.90
2018,11,11,07,54,1.90
2018,11,11,07,55,1.90
2018,11,11,07,56,1.90
2018,11,11,07,57,1.90
2018,11,11,07,58,1.90
2018,11,11,07,59,1.90
2018,11,11,08,00,1.90
2018,11,11,08,01,1.90
2018,11,11,08,02,1.90
2018,11,11,08,03,1.90
2018,11,11,08,04,1.90
2018,11,11,08,05,1.90
2018,11,11,08,06,1.90
2018,11,11,08,07,1.90
2018,11,11,08,08,1.90
2018,11,11,08,09,1.90
2018,11,11,08,10,1.90
2018,11,11,08,11,1.90
2018,11,11,08,12,2.00
2018,11,11,08,13,2.00
2018,11,11,08,14,2.00
2018,11,11,08,15,2.10
2018,11,11,08,16,2.10
2018,11,11,08,17,2.10
2018,11,11,08,18,2.10
2018,11,11,08,19,2.20
2018,11,11,08,20,2.20
2018,11,11,08,21,2.20
2018,11,11,08,22,2.20
2018,11,11,08,23,2.30
2018,11,11,08,24,2.30
2018,11,11,08,25,2.30
2018,11,11,08,26,2.30
2018,11,11,08,27,2.30
2018,11,11,08,28,2.40
2018,11,11,08,29,2.40
2018,11,11,08,30,2.40
2018,11,11,08,31,2.40
2018,11,11,08,32,2.40
2018,11,11,08,33,2.50
2018,11,11,08,34,2.50
2018,11,11,08,35,2.50
2018,11,11,08,36,2.50
2018,11,11,08,37,2.60
2018,11,11,08,38,2.60
2018,11,11,08,39,2.60
2018,11,11,08,40,2.60
2018,11,11,08,41,2.70
2018,11,11,08,42,2.70
2018,11,11,08,43,2.70
2018,11,11,08,44,2.70
2018,11,11,08,45,2.70
2018,11,11,08,46,2.80
2018,11,11,08,47,2.80
2018,11,11,08,48,2.80
2018,11,11,08,49,2.80
2018,11,11,08,50,2.80
2018,11,11,08,51,2.90
2018,11,11,08,52,2.90
2018,11,11,08,53,2.90
2018,11,11,08,54,2.90
2018,11,11,08,55,3.00
2018,11,11,08,56,3.00
2018,11,11,08,57,3.10
2018,11,11,08,58,3.10
2018,11,11,08,59,3.10
2018,11,11,09,00,3.10
2018,11,11,09,01,3.10
2018,11,11,09,02,3.20
2018,11,11,09,03,3.20
2018,11,11,09,04,3.20
2018,11,11,09,05,3.30
2018,11,11,09,06,3.30
2018,11,11,09,07,3.40
2018,11,11,09,08,3.40
2018,11,11,09,09,3.40
2018,11,11,09,10,3.50
2018,11,11,09,11,3.50
2018,11,11,09,12,3.60
2018,11,11,09,13,3.60
2018,11,11,09,14,3.60
2018,11,11,09,15,3.70
2018,11,11,09,16,3.70
2018,11,11,09,17,3.70
2018,11,11,09,18,3.70
2018,11,11,09,19,3.80
2018,11,11,09,20,3.80
2018,11,11,09,21,3.80
2018,11,11,09,22,3.80
2018,11,11,09,23,3.80
2018,11,11,09,24,3.80
2018,11,11,09,25,3.80
2018,11,11,09,26,3.80
2018,11,11,09,27,3.90
2018,11,11,09,28,3.90
2018,11,11,09,29,3.90
2018,11,11,09,30,4.00
2018,11,11,09,31,4.00
2018,11,11,09,32,4.00
2018,11,11,09,33,4.10
2018,11,11,09,34,4.10
2018,11,11,09,35,4.10
2018,11,11,09,36,4.10
2018,11,11,09,37,4.10
2018,11,11,09,38,4.10
2018,11,11,09,39,4.20
2018,11,11,09,40,4.20
2018,11,11,09,41,4.20
2018,11,11,09,42,4.20
2018,11,11,09,43,4.20
2018,11,11,09,44,4.30
2018,11,11,09,45,4.30
2018,11,11,09,46,4.30
2018,11,11,09,47,4.30
2018,11,11,09,48,4.40
2018,11,11,09,49,4.40
2018,11,11,09,50,4.40
2018,11,11,09,51,4.50
2018,11,11,09,52,4.50
2018,11,11,09,53,4.50
2018,11,11,09,54,4.50
2018,11,11,09,55,4.50
2018,11,11,09,56,4.50
2018,11,11,09,57,4.50
2018,11,11,09,58,4.40
2018,11,11,09,59,4.40
2018,11,11,10,00,4.40
2018,11,11,10,01,4.40
2018,11,11,10,02,4.50
2018,11,11,10,03,4.50
2018,11,11,10,04,4.50
2018,11,11,10,05,4.50
2018,11,11,10,06,4.60
2018,11,11,10,07,4.60
2018,11,11,10,08,4.60
2018,11,11,10,09,4.60
2018,11,11,10,10,4.60
2018,11,11,10,11,4.60
2018,11,11,10,12,4.60
2018,11,11,10,13,4.60
2018,11,11,10,14,4.70
2018,11,11,10,15,4.70
2018,11,11,10,16,4.70
2018,11,11,10,17,4.70
2018,11,11,10,18,4.70
2018,11,11,10,19,4.70
2018,11,11,10,20,4.80
2018,11,11,10,21,4.80
2018,11,11,10,22,4.80
2018,11,11,10,23,4.80
2018,11,11,10,24,4.80
2018,11,11,10,25,4.90
2018,11,11,10,26,4.90
2018,11,11,10,27,4.90
2018,11,11,10,28,4.90
2018,11,11,10,29,4.90
2018,11,11,10,30,5.00
2018,11,11,10,31,5.00
2018,11,11,10,32,5.00
2018,11,11,10,33,5.10
2018,11,11,10,34,5.10
2018,11,11,10,35,5.10
2018,11,11,10,36,5.20
2018,11,11,10,37,5.20
2018,11,11,10,38,5.30
2018,11,11,10,39,5.30
2018,11,11,10,40,5.30
2018,11,11,10,41,5.40
2018,11,11,10,42,5.40
2018,11,11,10,43,5.50
2018,11,11,10,44,5.50
2018,11,11,10,45,5.50
2018,11,11,10,46,5.60
2018,11,11,10,47,5.60
2018,11,11,10,48,5.60
2018,11,11,10,49,5.60
2018,11,11,10,50,5.60
2018,11,11,10,51,5.70
2018,11,11,10,52,5.70
2018,11,11,10,53,5.70
2018,11,11,10,54,5.70
2018,11,11,10,55,5.70
2018,11,11,10,56,5.70
2018,11,11,10,57,5.70
2018,11,11,10,58,5.70
2018,11,11,10,59,5.70
2018,11,11,11,00,5.80
2018,11,11,11,01,5.80
2018,11,11,11,02,5.80
2018,11,11,11,03,5.90
2018,11,11,11,04,5.90
2018,11,11,11,05,5.90
2018,11,11,11,06,5.90
2018,11,11,11,07,6.00
2018,11,11,11,08,6.00
2018,11,11,11,09,6.00
2018,11,11,11,10,6.00
2018,11,11,11,11,5.90
2018,11,11,11,12,5.90
2018,11,11,11,13,5.90
2018,11,11,11,14,5.90
2018,11,11,11,15,5.90
2018,11,11,11,16,5.90
2018,11,11,11,17,5.90
2018,11,11,11,18,6.00
2018,11,11,11,19,6.00
2018,11,11,11,20,6.00
2018,11,11,11,21,6.10
2018,11,11,11,22,6.10
2018,11,11,11,23,6.20
2018,11,11,11,24,6.20
2018,11,11,11,25,6.30
2018,11,11,11,26,6.30
2018,11,11,11,27,6.30
2018,11,11,11,28,6.30
2018,11,11,11,29,6.30
2018,11,11,11,30,6.30
2018,11,11,11,31,6.30
2018,11,11,11,32,6.30
2018,11,11,11,33,6.30
2018,11,11,11,34,6.30
2018,11,11,11,35,6.30
2018,11,11,11,36,6.30
2018,11,11,11,37,6.40
2018,11,11,11,38,6.40
2018,11,11,11,39,6.50
2018,11,11,11,40,6.60
2018,11,11,11,41,6.60
2018,11,11,11,42,6.60
2018,11,11,11,43,6.60
2018,11,11,11,44,6.60
2018,11,11,11,45,6.60
2018,11,11,11,46,6.60
2018,11,11,11,47,6.60
2018,11,11,11,48,6.70
2018,11,11,11,49,6.70
2018,11,11,11,50,6.80
2018,11,11,11,51,6.80
2018,11,11,11,52,6.80
2018,11,11,11,53,6.80
2018,11,11,11,54,6.80
2018,11,11,11,55,6.90
2018,11,11,11,56,6.90
2018,11,11,11,57,6.90
2018,11,11,11,58,6.90
2018,11,11,11,59,6.90
2018,11,11,12,00,7.00
2018,11,11,12,01,7.00
2018,11,11,12,02,7.00
2018,11,11,12,03,6.90
2018,11,11,12,04,6.90
2018,11,11,12,05,6.90
2018,11,11,12,06,7.00
2018,11,11,12,07,7.00
2018,11,11,12,08,7.00
2018,11,11,12,09,7.10
2018,11,11,12,10,7.10
2018,11,11,12,11,7.20
2018,11,11,12,12,7.20
2018,11,11,12,13,7.20
2018,11,11,12,14,7.30
2018,11,11,12,15,7.30
2018,11,11,12,16,7.30
2018,11,11,12,17,7.30
2018,11,11,12,18,7.30
2018,11,11,12,19,7.30
2018,11,11,12,20,7.30
2018,11,11,12,21,7.20
2018,11,11,12,22,7.20
2018,11,11,12,23,7.20
2018,11,11,12,24,7.20
2018,11,11,12,25,7.20
2018,11,11,12,26,7.20
2018,11,11,12,27,7.20
2018,11,11,12,28,7.20
2018,11,11,12,29,7.20
2018,11,11,12,30,7.20
2018,11,11,12,31,7.20
2018,11,11,12,32,7.30
2018,11,11,12,33,7.30
2018,11,11,12,34,7.30
2018,11,11,12,35,7.30
2018,11,11,12,36,7.30
2018,11,11,12,37,7.30
2018,11,11,12,38,7.30
2018,11,11,12,39,7.30
2018,11,11,12,40,7.40
2018,11,11,12,41,7.40
2018,11,11,12,42,7.40
2018,11,11,12,43,7.30
2018,11,11,12,44,7.30
2018,11,11,12,45,7.30
2018,11,11,12,46,7.40
2018,11,11,12,47,7.40
2018,11,11,12,48,7.40
2018,11,11,12,49,7.50
2018,11,11,12,50,7.60
2018,11,11,12,51,7.60
2018,11,11,12,52,7.60
2018,11,11,12,53,7.60
2018,11,11,12,54,7.60
2018,11,11,12,55,7.70
2018,11,11,12,56,7.70
2018,11,11,12,57,7.70
2018,11,11,12,58,7.60
2018,11,11,12,59,7.60
2018,11,11,13,00,7.60
2018,11,11,13,01,7.60
2018,11,11,13,02,7.50
2018,11,11,13,03,7.50
2018,11,11,13,04,7.40
2018,11,11,13,05,7.40
2018,11,11,13,06,7.40
2018,11,11,13,07,7.40
2018,11,11,13,08,7.40
2018,11,11,13,09,7.40
2018,11,11,13,10,7.50
2018,11,11,13,11,7.50
2018,11,11,13,12,7.50
2018,11,11,13,13,7.60
2018,11,11,13,14,7.60
2018,11,11,13,15,7.60
2018,11,11,13,16,7.60
2018,11,11,13,17,7.60
2018,11,11,13,18,7.70
2018,11,11,13,19,7.70
2018,11,11,13,20,7.70
2018,11,11,13,21,7.70
2018,11,11,13,22,7.70
2018,11,11,13,23,7.70
2018,11,11,13,24,7.70
2018,11,11,13,25,7.70
2018,11,11,13,26,7.70
2018,11,11,13,27,7.70
2018,11,11,13,28,7.70
2018,11,11,13,29,7.70
2018,11,11,13,30,7.70
2018,11,11,13,31,7.70
2018,11,11,13,32,7.70
2018,11,11,13,33,7.70
2018,11,11,13,34,7.70
2018,11,11,13,35,7.70
2018,11,11,13,36,7.70
2018,11,11,13,37,7.70
2018,11,11,13,38,7.70
2018,11,11,13,39,7.70
2018,11,11,13,40,7.70
2018,11,11,13,41,7.70
2018,11,11,13,42,7.70
2018,11,11,13,43,7.70
2018,11,11,13,44,7.70
2018,11,11,13,45,7.70
2018,11,11,13,46,7.70
2018,11,11,13,47,7.70
2018,11,11,13,48,7.70
2018,11,11,13,49,7.60
2018,11,11,13,50,7.60
2018,11,11,13,51,7.60
2018,11,11,13,52,7.60
2018,11,11,13,53,7.60
2018,11,11,13,54,7.60
2018,11,11,13,55,7.60
2018,11,11,13,56,7.50
2018,11,11,13,57,7.50
2018,11,11,13,58,7.50
2018,11,11,13,59,7.50
2018,11,11,14,00,7.50
2018,11,11,14,01,7.50
2018,11,11,14,02,7.50
2018,11,11,14,03,7.50
2018,11,11,14,04,7.50
2018,11,11,14,05,7.50
2018,11,11,14,06,7.40
2018,11,11,14,07,7.40
2018,11,11,14,08,7.40
2018,11,11,14,09,7.40
2018,11,11,14,10,7.40
2018,11,11,14,11,7.40
2018,11,11,14,12,7.40
2018,11,11,14,13,7.40
2018,11,11,14,14,7.40
2018,11,11,14,15,7.40
2018,11,11,14,16,7.40
2018,11,11,14,17,7.40
2018,11,11,14,18,7.40
2018,11,11,14,19,7.40
2018,11,11,14,20,7.40
2018,11,11,14,21,7.30
2018,11,11,14,22,7.30
2018,11,11,14,23,7.30
2018,11,11,14,24,7.30
2018,11,11,14,25,7.30
2018,11,11,14,26,7.30
2018,11,11,14,27,7.30
2018,11,11,14,28,7.30
2018,11,11,14,29,7.30
2018,11,11,14,30,7.30
2018,11,11,14,31,7.30
2018,11,11,14,32,7.30
2018,11,11,14,33,7.30
2018,11,11,14,34,7.20
2018,11,11,14,35,7.20
2018,11,11,14,36,7.20
2018,11,11,14,37,7.20
2018,11,11,14,38,7.20
2018,11,11,14,39,7.20
2018,11,11,14,40,7.10
2018,11,11,14,41,7.10
2018,11,11,14,42,7.10
2018,11,11,14,43,7.10
2018,11,11,14,44,7.10
2018,11,11,14,45,7.10
2018,11,11,14,46,7.10
2018,11,11,14,47,7.10
2018,11,11,14,48,7.10
2018,11,11,14,49,7.10
2018,11,11,14,50,7.00
2018,11,11,14,51,7.00
2018,11,11,14,52,7.00
2018,11,11,14,53,7.00
2018,11,11,14,54,7.00
2018,11,11,14,55,6.90
2018,11,11,14,56,6.90
2018,11,11,14,57,6.90
2018,11,11,14,58,6.90
2018,11,11,14,59,6.90
2018,11,11,15,00,6.90
2018,11,11,15,01,6.90
2018,11,11,15,02,6.90
2018,11,11,15,03,6.90
2018,11,11,15,04,6.80
2018,11,11,15,05,6.80
2018,11,11,15,06,6.80
2018,11,11,15,07,6.80
2018,11,11,15,08,6.80
2018,11,11,15,09,6.70
2018,11,11,15,10,6.70
2018,11,11,15,11,6.70
2018,11,11,15,12,6.70
2018,11,11,15,13,6.70
2018,11,11,15,14,6.70
2018,11,11,15,15,6.70
2018,11,11,15,16,6.70
2018,11,11,15,17,6.70
2018,11,11,15,18,6.70
2018,11,11,15,19,6.70
2018,11,11,15,20,6.70
2018,11,11,15,21,6.70
2018,11,11,15,22,6.70
2018,11,11,15,23,6.70
2018,11,11,15,24,6.70
2018,11,11,15,25,6.60
2018,11,11,15,26,6.60
2018,11,11,15,27,6.60
2018,11,11,15,28,6.60
2018,11,11,15,29,6.60
2018,11,11,15,30,6.60
2018,11,11,15,31,6.60
2018,11,11,15,32,6.50
2018,11,11,15,33,6.50
2018,11,11,15,34,6.50
2018,11,11,15,35,6.50
2018,11,11,15,36,6.40
2018,11,11,15,37,6.40
2018,11,11,15,38,6.40
2018,11,11,15,39,6.40
2018,11,11,15,40,6.40
2018,11,11,15,41,6.30
2018,11,11,15,42,6.30
2018,11,11,15,43,6.30
2018,11,11,15,44,6.30
2018,11,11,15,45,6.30
2018,11,11,15,46,6.30
2018,11,11,15,47,6.30
2018,11,11,15,48,6.20
2018,11,11,15,49,6.20
2018,11,11,15,50,6.20
2018,11,11,15,51,6.20
2018,11,11,15,52,6.20
2018,11,11,15,53,6.20
2018,11,11,15,54,6.10
2018,11,11,15,55,6.10
2018,11,11,15,56,6.10
2018,11,11,15,57,6.10
2018,11,11,15,58,6.10
2018,11,11,15,59,6.00
2018,11,11,16,00,6.00
2018,11,11,16,01,6.00
2018,11,11,16,02,6.00
2018,11,11,16,03,5.90
2018,11,11,16,04,5.90
2018,11,11,16,05,5.90
2018,11,11,16,06,5.90
2018,11,11,16,07,5.90
2018,11,11,16,08,5.90
2018,11,11,16,09,5.90
2018,11,11,16,10,5.90
2018,11,11,16,11,5.90
2018,11,11,16,12,5.80
2018,11,11,16,13,5.80
2018,11,11,16,14,5.80
2018,11,11,16,15,5.80
2018,11,11,16,16,5.80
2018,11,11,16,17,5.70
2018,11,11,16,18,5.70
2018,11,11,16,19,5.70
2018,11,11,16,20,5.70
2018,11,11,16,21,5.60
2018,11,11,16,22,5.60
2018,11,11,16,23,5.60
2018,11,11,16,24,5.60
2018,11,11,16,25,5.50
2018,11,11,16,26,5.50
2018,11,11,16,27,5.40
2018,11,11,16,28,5.40
2018,11,11,16,29,5.40
2018,11,11,16,30,5.40
2018,11,11,16,31,5.40
2018,11,11,16,32,5.30
2018,11,11,16,33,5.30
2018,11,11,16,34,5.30
2018,11,11,16,35,5.30
2018,11,11,16,36,5.20
2018,11,11,16,37,5.20
2018,11,11,16,38,5.20
2018,11,11,16,39,5.20
2018,11,11,16,40,5.20
2018,11,11,16,41,5.10
2018,11,11,16,42,5.10
2018,11,11,16,43,5.10
2018,11,11,16,44,5.10
2018,11,11,16,45,5.10
2018,11,11,16,46,5.10
2018,11,11,16,47,5.10
2018,11,11,16,48,5.10
2018,11,11,16,49,5.00
2018,11,11,16,50,5.00
2018,11,11,16,51,5.00
2018,11,11,16,52,5.00
2018,11,11,16,53,5.00
2018,11,11,16,54,5.00
2018,11,11,16,55,5.00
2018,11,11,16,56,5.00
2018,11,11,16,57,5.00
2018,11,11,16,58,4.90
2018,11,11,16,59,4.90
2018,11,11,17,00,4.90
2018,11,11,17,01,4.90
2018,11,11,17,02,4.90
2018,11,11,17,03,4.90
2018,11,11,17,04,4.90
2018,11,11,17,05,4.90
2018,11,11,17,06,4.90
2018,11,11,17,07,4.90
2018,11,11,17,08,4.90
2018,11,11,17,09,4.90
2018,11,11,17,10,4.90
2018,11,11,17,11,4.90
2018,11,11,17,12,4.90
2018,11,11,17,13,4.90
2018,11,11,17,14,4.90
2018,11,11,17,15,4.90
2018,11,11,17,16,4.90
2018,11,11,17,17,4.90
2018,11,11,17,18,4.90
2018,11,11,17,19,5.00
2018,11,11,17,20,5.00
2018,11,11,17,21,5.00
2018,11,11,17,22,5.00
2018,11,11,17,23,5.00
2018,11,11,17,24,5.00
2018,11,11,17,25,5.00
2018,11,11,17,26,5.00
2018,11,11,17,27,5.00
2018,11,11,17,28,5.00
2018,11,11,17,29,5.00
2018,11,11,17,30,5.00
2018,11,11,17,31,5.00
2018,11,11,17,32,5.00
2018,11,11,17,33,5.00
2018,11,11,17,34,4.90
2018,11,11,17,35,4.90
2018,11,11,17,36,4.90
2018,11,11,17,37,4.90
2018,11,11,17,38,4.90
2018,11,11,17,39,4.90
2018,11,11,17,40,4.90
2018,11,11,17,41,4.90
2018,11,11,17,42,4.80
2018,11,11,17,43,4.80
2018,11,11,17,44,4.80
2018,11,11,17,45,4.80
2018,11,11,17,46,4.80
2018,11,11,17,47,4.80
2018,11,11,17,48,4.80
2018,11,11,17,49,4.80
2018,11,11,17,50,4.80
2018,11,11,17,51,4.80
2018,11,11,17,52,4.80
2018,11,11,17,53,4.80
2018,11,11,17,54,4.80
2018,11,11,17,55,4.80
2018,11,11,17,56,4.80
2018,11,11,17,57,4.80
2018,11,11,17,58,4.80
2018,11,11,17,59,4.80
2018,11,11,18,00,4.80
2018,11,11,18,01,4.80
2018,11,11,18,02,4.80
2018,11,11,18,03,4.80
2018,11,11,18,04,4.80
2018,11,11,18,05,4.80
2018,11,11,18,06,4.80